Toledo, OH

9:49 PM EDT on May 27, 2017 (GMT -0400)
Toledo Express

Weather History for KTOL - January, 2014

Change the Weather History Date:

Wednesday, January 29, 2014

  Actual Average Record
Temperature  
Mean Temperature 6 °F 26 °F  
Max Temperature 15 °F 33 °F 62 °F (1914)
Min Temperature -3 °F 18 °F -9 °F (1963)
Degree Days  
Heating Degree Days 59 39  
Month to date heating degree days 1429 1149  
Since 1 July heating degree days 3928 3474  
Cooling Degree Days 0 0  
Month to date cooling degree days 0 0  
Year to date cooling degree days 0 0  
Moisture  
Dew Point -4 °F    
Average Humidity 65    
Maximum Humidity 79    
Minimum Humidity 51    
Precipitation  
Precipitation 0.00 in 0.07 in 0.82 in (1969)
Month to date precipitation 3.22 1.93  
Year to date precipitation 3.22 1.93  
Snow  
Snow 0.00 in 0.40 in - ()
Month to date snowfall 39.5 10.8  
Since 1 July snowfall 51.2 20.3  
Snow Depth 8.00 in    
Sea Level Pressure  
Sea Level Pressure 30.24 in    
Wind  
Wind Speed 13 mph (SW)    
Max Wind Speed 30 mph    
Max Gust Speed 36 mph    
Visibility 10 miles    
Events      
T = Trace of Precipitation, MM = Missing Value Source: NWS Daily Summary

Daily Weather History Graph

Daily Weather History Graph

Search for Another Location

Airport or City:

Trip Planner

Search our weather history database for the weather conditions in past years. The results will help you decide how hot, cold, wet, or windy it might be!

Date:

Astronomy

Jan. 29, 2014 Rise Set
Actual Time 7:49 AM EST 5:47 PM EST
Civil Twilight 7:20 AM EST 6:16 PM EST
Nautical Twilight 6:47 AM EST 6:50 PM EST
Astronomical Twilight 6:14 AM EST 7:22 PM EST
Moon 6:25 AM EST (1/29) 4:45 PM EST (1/29)
Length of Visible Light 10h 56m
Length of Day
9h 57m
Waning Crescent, 2% of the Moon is Illuminated
Jan 29
Waning Crescent
Jan 30
New
Feb 6
First Quarter
Feb 14
Full
Feb 22
Last Quarter

Hourly Weather History & Observations

Time (EST) Temp. Windchill Dew Point Humidity Pressure Visibility Wind Dir Wind Speed Gust Speed Precip Events Conditions
12:52 AM -0.9 °F -17.4 °F -9.9 °F 66% 30.27 in 10.0 mi SW 10.4 mph - N/A   Clear
1:52 AM -0.9 °F -19.9 °F -9.0 °F 69% 30.25 in 10.0 mi WSW 13.8 mph - N/A   Clear
2:52 AM -0.0 °F -18.0 °F -9.0 °F 66% 30.25 in 10.0 mi SW 12.7 mph - N/A   Clear
3:52 AM -2.0 °F -19.6 °F -8.0 °F 76% 30.23 in 10.0 mi SW 11.5 mph - N/A   Clear
4:52 AM -2.9 °F -19.8 °F -8.0 °F 79% 30.22 in 10.0 mi SW 10.4 mph - N/A   Clear
5:52 AM -2.0 °F -19.6 °F -8.0 °F 76% 30.22 in 10.0 mi SSW 11.5 mph - N/A   Clear
6:52 AM -0.0 °F -18.7 °F -8.0 °F 69% 30.22 in 10.0 mi SW 13.8 mph - N/A   Clear
7:52 AM 1.0 °F -18.0 °F -8.0 °F 66% 30.22 in 10.0 mi SW 15.0 mph 23.0 mph N/A   Clear
8:52 AM 3.0 °F -16.1 °F -7.1 °F 63% 30.22 in 10.0 mi SW 16.1 mph 25.3 mph N/A   Clear
9:52 AM 6.1 °F -14.3 °F -5.1 °F 60% 30.23 in 10.0 mi SW 20.7 mph 28.8 mph N/A   Clear
10:52 AM 8.1 °F -12.6 °F -4.0 °F 58% 30.25 in 10.0 mi WSW 23.0 mph 29.9 mph N/A   Clear
11:52 AM 9.0 °F -9.0 °F -2.9 °F 59% 30.24 in 10.0 mi WSW 17.3 mph 27.6 mph N/A   Clear
12:52 PM 12.0 °F -5.6 °F -2.0 °F 53% 30.22 in 10.0 mi WSW 18.4 mph 27.6 mph N/A   Clear
1:52 PM 12.9 °F -6.9 °F -0.9 °F 54% 30.21 in 10.0 mi WSW 25.3 mph 34.5 mph N/A   Clear
2:52 PM 14.0 °F -3.9 °F -0.0 °F 54% 30.22 in 10.0 mi WSW 20.7 mph 28.8 mph N/A   Clear
3:52 PM 15.1 °F 1.1 °F -0.9 °F 49% 30.22 in 10.0 mi SW 12.7 mph 26.5 mph N/A   Clear
4:52 PM 14.0 °F -2.0 °F -0.0 °F 54% 30.24 in 10.0 mi SW 16.1 mph 27.6 mph N/A   Clear
5:52 PM 14.0 °F -1.4 °F -0.9 °F 52% 30.24 in 10.0 mi SW 15.0 mph - N/A   Clear
6:52 PM 12.0 °F 2.7 °F -0.9 °F 56% 30.27 in 10.0 mi SSW 5.8 mph - N/A   Clear
7:52 PM 10.9 °F 0.2 °F -0.0 °F 61% 30.26 in 10.0 mi SSW 6.9 mph - N/A   Clear
8:52 PM 9.0 °F -0.9 °F -0.0 °F 67% 30.26 in 10.0 mi South 5.8 mph - N/A   Clear
9:52 PM 8.1 °F -2.0 °F -0.0 °F 70% 30.25 in 10.0 mi South 5.8 mph - N/A   Clear
10:52 PM 7.0 °F -3.3 °F -0.0 °F 73% 30.25 in 10.0 mi South 5.8 mph - N/A   Clear
11:52 PM 9.0 °F -2.2 °F 1.0 °F 70% 30.23 in 10.0 mi South 6.9 mph - N/A   Clear